Year,Month,Day,Hour,Minute,Value (Times are PST for temperature in C)
2015,06,26,00,00,18.20
2015,06,26,00,01,18.20
2015,06,26,00,02,18.20
2015,06,26,00,03,18.20
2015,06,26,00,04,18.20
2015,06,26,00,05,18.10
2015,06,26,00,06,18.10
2015,06,26,00,07,18.10
2015,06,26,00,08,18.10
2015,06,26,00,09,18.10
2015,06,26,00,10,18.10
2015,06,26,00,11,18.00
2015,06,26,00,12,18.00
2015,06,26,00,13,17.90
2015,06,26,00,14,17.90
2015,06,26,00,15,17.90
2015,06,26,00,16,17.90
2015,06,26,00,17,17.80
2015,06,26,00,18,17.80
2015,06,26,00,19,17.80
2015,06,26,00,20,17.80
2015,06,26,00,21,17.70
2015,06,26,00,22,17.70
2015,06,26,00,23,17.70
2015,06,26,00,24,17.70
2015,06,26,00,25,17.60
2015,06,26,00,26,17.60
2015,06,26,00,27,17.60
2015,06,26,00,28,17.60
2015,06,26,00,29,17.50
2015,06,26,00,30,17.50
2015,06,26,00,31,17.50
2015,06,26,00,32,17.50
2015,06,26,00,33,17.40
2015,06,26,00,34,17.40
2015,06,26,00,35,17.40
2015,06,26,00,36,17.40
2015,06,26,00,37,17.40
2015,06,26,00,38,17.40
2015,06,26,00,39,17.40
2015,06,26,00,40,17.40
2015,06,26,00,41,17.40
2015,06,26,00,42,17.40
2015,06,26,00,43,17.30
2015,06,26,00,44,17.30
2015,06,26,00,45,17.30
2015,06,26,00,46,17.30
2015,06,26,00,47,17.30
2015,06,26,00,48,17.30
2015,06,26,00,49,17.30
2015,06,26,00,50,17.30
2015,06,26,00,51,17.30
2015,06,26,00,52,17.30
2015,06,26,00,53,17.30
2015,06,26,00,54,17.30
2015,06,26,00,55,17.20
2015,06,26,00,56,17.20
2015,06,26,00,57,17.20
2015,06,26,00,58,17.20
2015,06,26,00,59,17.20
2015,06,26,01,00,17.20
2015,06,26,01,01,17.20
2015,06,26,01,02,17.20
2015,06,26,01,03,17.20
2015,06,26,01,04,17.20
2015,06,26,01,05,17.20
2015,06,26,01,06,17.20
2015,06,26,01,07,17.10
2015,06,26,01,08,17.10
2015,06,26,01,09,17.10
2015,06,26,01,10,17.10
2015,06,26,01,11,17.10
2015,06,26,01,12,17.00
2015,06,26,01,13,17.00
2015,06,26,01,14,17.00
2015,06,26,01,15,16.90
2015,06,26,01,16,16.90
2015,06,26,01,17,16.90
2015,06,26,01,18,16.80
2015,06,26,01,19,16.80
2015,06,26,01,20,16.80
2015,06,26,01,21,16.70
2015,06,26,01,22,16.70
2015,06,26,01,23,16.60
2015,06,26,01,24,16.60
2015,06,26,01,25,16.60
2015,06,26,01,26,16.50
2015,06,26,01,27,16.50
2015,06,26,01,28,16.50
2015,06,26,01,29,16.40
2015,06,26,01,30,16.40
2015,06,26,01,31,16.40
2015,06,26,01,32,16.40
2015,06,26,01,33,16.40
2015,06,26,01,34,16.40
2015,06,26,01,35,16.40
2015,06,26,01,36,16.40
2015,06,26,01,37,16.40
2015,06,26,01,38,16.30
2015,06,26,01,39,16.30
2015,06,26,01,40,16.30
2015,06,26,01,41,16.30
2015,06,26,01,42,16.30
2015,06,26,01,43,16.30
2015,06,26,01,44,16.30
2015,06,26,01,45,16.30
2015,06,26,01,46,16.20
2015,06,26,01,47,16.20
2015,06,26,01,48,16.20
2015,06,26,01,49,16.20
2015,06,26,01,50,16.20
2015,06,26,01,51,16.20
2015,06,26,01,52,16.20
2015,06,26,01,53,16.20
2015,06,26,01,54,16.20
2015,06,26,01,55,16.20
2015,06,26,01,56,16.10
2015,06,26,01,57,16.10
2015,06,26,01,58,16.10
2015,06,26,01,59,16.10
2015,06,26,02,00,16.10
2015,06,26,02,01,16.10
2015,06,26,02,02,16.10
2015,06,26,02,03,16.00
2015,06,26,02,04,16.00
2015,06,26,02,05,16.00
2015,06,26,02,06,15.90
2015,06,26,02,07,15.90
2015,06,26,02,08,15.90
2015,06,26,02,09,15.90
2015,06,26,02,10,15.80
2015,06,26,02,11,15.80
2015,06,26,02,12,15.80
2015,06,26,02,13,15.80
2015,06,26,02,14,15.80
2015,06,26,02,15,15.80
2015,06,26,02,16,15.80
2015,06,26,02,17,15.80
2015,06,26,02,18,15.80
2015,06,26,02,19,15.80
2015,06,26,02,20,15.80
2015,06,26,02,21,15.70
2015,06,26,02,22,15.70
2015,06,26,02,23,15.70
2015,06,26,02,24,15.70
2015,06,26,02,25,15.70
2015,06,26,02,26,15.60
2015,06,26,02,27,15.60
2015,06,26,02,28,15.60
2015,06,26,02,29,15.60
2015,06,26,02,30,15.60
2015,06,26,02,31,15.60
2015,06,26,02,32,15.60
2015,06,26,02,33,15.60
2015,06,26,02,34,15.60
2015,06,26,02,35,15.60
2015,06,26,02,36,15.50
2015,06,26,02,37,15.50
2015,06,26,02,38,15.50
2015,06,26,02,39,15.50
2015,06,26,02,40,15.40
2015,06,26,02,41,15.40
2015,06,26,02,42,15.40
2015,06,26,02,43,15.40
2015,06,26,02,44,15.30
2015,06,26,02,45,15.30
2015,06,26,02,46,15.30
2015,06,26,02,47,15.30
2015,06,26,02,48,15.30
2015,06,26,02,49,15.30
2015,06,26,02,50,15.30
2015,06,26,02,51,15.20
2015,06,26,02,52,15.20
2015,06,26,02,53,15.20
2015,06,26,02,54,15.20
2015,06,26,02,55,15.20
2015,06,26,02,56,15.20
2015,06,26,02,57,15.20
2015,06,26,02,58,15.20
2015,06,26,02,59,15.20
2015,06,26,03,00,15.20
2015,06,26,03,01,15.20
2015,06,26,03,02,15.20
2015,06,26,03,03,15.10
2015,06,26,03,04,15.20
2015,06,26,03,05,15.20
2015,06,26,03,06,15.20
2015,06,26,03,07,15.20
2015,06,26,03,08,15.20
2015,06,26,03,09,15.20
2015,06,26,03,10,15.20
2015,06,26,03,11,15.20
2015,06,26,03,12,15.20
2015,06,26,03,13,15.20
2015,06,26,03,14,15.20
2015,06,26,03,15,15.10
2015,06,26,03,16,15.10
2015,06,26,03,17,15.10
2015,06,26,03,18,15.10
2015,06,26,03,19,15.10
2015,06,26,03,20,15.00
2015,06,26,03,21,15.00
2015,06,26,03,22,14.90
2015,06,26,03,23,14.90
2015,06,26,03,24,14.90
2015,06,26,03,25,14.80
2015,06,26,03,26,14.80
2015,06,26,03,27,14.80
2015,06,26,03,28,14.80
2015,06,26,03,29,14.80
2015,06,26,03,30,14.80
2015,06,26,03,31,14.80
2015,06,26,03,32,14.80
2015,06,26,03,33,14.80
2015,06,26,03,34,14.80
2015,06,26,03,35,14.80
2015,06,26,03,36,14.80
2015,06,26,03,37,14.80
2015,06,26,03,38,14.90
2015,06,26,03,39,14.90
2015,06,26,03,40,14.80
2015,06,26,03,41,14.80
2015,06,26,03,42,14.80
2015,06,26,03,43,14.80
2015,06,26,03,44,14.80
2015,06,26,03,45,14.80
2015,06,26,03,46,14.80
2015,06,26,03,47,14.80
2015,06,26,03,48,14.80
2015,06,26,03,49,14.80
2015,06,26,03,50,14.80
2015,06,26,03,51,14.80
2015,06,26,03,52,14.80
2015,06,26,03,53,14.70
2015,06,26,03,54,14.70
2015,06,26,03,55,14.70
2015,06,26,03,56,14.70
2015,06,26,03,57,14.70
2015,06,26,03,58,14.70
2015,06,26,03,59,14.70
2015,06,26,04,00,14.70
2015,06,26,04,01,14.70
2015,06,26,04,02,14.60
2015,06,26,04,03,14.60
2015,06,26,04,04,14.60
2015,06,26,04,05,14.50
2015,06,26,04,06,14.50
2015,06,26,04,07,14.40
2015,06,26,04,08,14.40
2015,06,26,04,09,14.40
2015,06,26,04,10,14.40
2015,06,26,04,11,14.40
2015,06,26,04,12,14.30
2015,06,26,04,13,14.30
2015,06,26,04,14,14.30
2015,06,26,04,15,14.20
2015,06,26,04,16,14.20
2015,06,26,04,17,14.20
2015,06,26,04,18,14.20
2015,06,26,04,19,14.20
2015,06,26,04,20,14.10
2015,06,26,04,21,14.10
2015,06,26,04,22,14.10
2015,06,26,04,23,14.00
2015,06,26,04,24,14.00
2015,06,26,04,25,14.00
2015,06,26,04,26,14.00
2015,06,26,04,27,14.00
2015,06,26,04,28,14.00
2015,06,26,04,29,13.90
2015,06,26,04,30,13.90
2015,06,26,04,31,13.90
2015,06,26,04,32,13.90
2015,06,26,04,33,13.90
2015,06,26,04,34,13.90
2015,06,26,04,35,13.90
2015,06,26,04,36,13.90
2015,06,26,04,37,13.90
2015,06,26,04,38,13.90
2015,06,26,04,39,13.90
2015,06,26,04,40,13.90
2015,06,26,04,41,14.00
2015,06,26,04,42,14.00
2015,06,26,04,43,14.00
2015,06,26,04,44,14.10
2015,06,26,04,45,14.10
2015,06,26,04,46,14.10
2015,06,26,04,47,14.10
2015,06,26,04,48,14.10
2015,06,26,04,49,14.10
2015,06,26,04,50,14.10
2015,06,26,04,51,14.10
2015,06,26,04,52,14.10
2015,06,26,04,53,14.00
2015,06,26,04,54,14.00
2015,06,26,04,55,14.00
2015,06,26,04,56,14.00
2015,06,26,04,57,14.00
2015,06,26,04,58,14.00
2015,06,26,04,59,14.00
2015,06,26,05,00,14.00
2015,06,26,05,01,14.00
2015,06,26,05,02,14.00
2015,06,26,05,03,13.90
2015,06,26,05,04,13.90
2015,06,26,05,05,13.90
2015,06,26,05,06,13.90
2015,06,26,05,07,13.90
2015,06,26,05,08,13.90
2015,06,26,05,09,13.90
2015,06,26,05,10,13.90
2015,06,26,05,11,13.90
2015,06,26,05,12,13.90
2015,06,26,05,13,13.90
2015,06,26,05,14,13.90
2015,06,26,05,15,13.90
2015,06,26,05,16,13.90
2015,06,26,05,17,13.90
2015,06,26,05,18,13.90
2015,06,26,05,19,13.90
2015,06,26,05,20,13.90
2015,06,26,05,21,13.90
2015,06,26,05,22,14.00
2015,06,26,05,23,14.00
2015,06,26,05,24,13.90
2015,06,26,05,25,13.90
2015,06,26,05,26,13.90
2015,06,26,05,27,13.90
2015,06,26,05,28,13.90
2015,06,26,05,29,13.90
2015,06,26,05,30,13.90
2015,06,26,05,31,13.90
2015,06,26,05,32,13.90
2015,06,26,05,33,13.90
2015,06,26,05,34,13.90
2015,06,26,05,35,13.90
2015,06,26,05,36,13.90
2015,06,26,05,37,13.90
2015,06,26,05,38,13.80
2015,06,26,05,39,13.80
2015,06,26,05,40,13.80
2015,06,26,05,41,13.80
2015,06,26,05,42,13.80
2015,06,26,05,43,13.80
2015,06,26,05,44,13.80
2015,06,26,05,45,13.80
2015,06,26,05,46,13.80
2015,06,26,05,47,13.80
2015,06,26,05,48,13.80
2015,06,26,05,49,13.80
2015,06,26,05,50,13.80
2015,06,26,05,51,13.80
2015,06,26,05,52,13.80
2015,06,26,05,53,13.80
2015,06,26,05,54,13.80
2015,06,26,05,55,13.80
2015,06,26,05,56,13.90
2015,06,26,05,57,13.90
2015,06,26,05,58,13.90
2015,06,26,05,59,13.90
2015,06,26,06,00,14.00
2015,06,26,06,01,14.00
2015,06,26,06,02,14.10
2015,06,26,06,03,14.10
2015,06,26,06,04,14.10
2015,06,26,06,05,14.10
2015,06,26,06,06,14.10
2015,06,26,06,07,14.10
2015,06,26,06,08,14.20
2015,06,26,06,09,14.20
2015,06,26,06,10,14.20
2015,06,26,06,11,14.20
2015,06,26,06,12,14.20
2015,06,26,06,13,14.20
2015,06,26,06,14,14.20
2015,06,26,06,15,14.20
2015,06,26,06,16,14.20
2015,06,26,06,17,14.30
2015,06,26,06,18,14.30
2015,06,26,06,19,14.30
2015,06,26,06,20,14.30
2015,06,26,06,21,14.30
2015,06,26,06,22,14.30
2015,06,26,06,23,14.30
2015,06,26,06,24,14.30
2015,06,26,06,25,14.40
2015,06,26,06,26,14.40
2015,06,26,06,27,14.40
2015,06,26,06,28,14.40
2015,06,26,06,29,14.50
2015,06,26,06,30,14.50
2015,06,26,06,31,14.50
2015,06,26,06,32,14.50
2015,06,26,06,33,14.60
2015,06,26,06,34,14.60
2015,06,26,06,35,14.70
2015,06,26,06,36,14.70
2015,06,26,06,37,14.70
2015,06,26,06,38,14.80
2015,06,26,06,39,14.80
2015,06,26,06,40,14.80
2015,06,26,06,41,14.80
2015,06,26,06,42,14.80
2015,06,26,06,43,14.90
2015,06,26,06,44,14.90
2015,06,26,06,45,14.90
2015,06,26,06,46,14.90
2015,06,26,06,47,15.00
2015,06,26,06,48,15.00
2015,06,26,06,49,15.10
2015,06,26,06,50,15.20
2015,06,26,06,51,15.20
2015,06,26,06,52,15.30
2015,06,26,06,53,15.40
2015,06,26,06,54,15.40
2015,06,26,06,55,15.50
2015,06,26,06,56,15.60
2015,06,26,06,57,15.60
2015,06,26,06,58,15.70
2015,06,26,06,59,15.70
2015,06,26,07,00,15.80
2015,06,26,07,01,15.90
2015,06,26,07,02,16.00
2015,06,26,07,03,16.00
2015,06,26,07,04,16.10
2015,06,26,07,05,16.20
2015,06,26,07,06,16.30
2015,06,26,07,07,16.40
2015,06,26,07,08,16.50
2015,06,26,07,09,16.60
2015,06,26,07,10,16.70
2015,06,26,07,11,16.80
2015,06,26,07,12,17.00
2015,06,26,07,13,17.10
2015,06,26,07,14,17.20
2015,06,26,07,15,17.30
2015,06,26,07,16,17.40
2015,06,26,07,17,17.60
2015,06,26,07,18,17.70
2015,06,26,07,19,17.80
2015,06,26,07,20,18.00
2015,06,26,07,21,18.10
2015,06,26,07,22,18.20
2015,06,26,07,23,18.30
2015,06,26,07,24,18.40
2015,06,26,07,25,18.40
2015,06,26,07,26,18.50
2015,06,26,07,27,18.60
2015,06,26,07,28,18.60
2015,06,26,07,29,18.70
2015,06,26,07,30,18.80
2015,06,26,07,31,18.80
2015,06,26,07,32,18.90
2015,06,26,07,33,19.00
2015,06,26,07,34,19.10
2015,06,26,07,35,19.10
2015,06,26,07,36,19.20
2015,06,26,07,37,19.30
2015,06,26,07,38,19.40
2015,06,26,07,39,19.40
2015,06,26,07,40,19.40
2015,06,26,07,41,19.50
2015,06,26,07,42,19.50
2015,06,26,07,43,19.60
2015,06,26,07,44,19.70
2015,06,26,07,45,19.80
2015,06,26,07,46,19.80
2015,06,26,07,47,19.90
2015,06,26,07,48,20.00
2015,06,26,07,49,20.10
2015,06,26,07,50,20.20
2015,06,26,07,51,20.20
2015,06,26,07,52,20.20
2015,06,26,07,53,20.10
2015,06,26,07,54,20.10
2015,06,26,07,55,19.90
2015,06,26,07,56,19.80
2015,06,26,07,57,19.70
2015,06,26,07,58,19.60
2015,06,26,07,59,19.50
2015,06,26,08,00,19.40
2015,06,26,08,01,19.30
2015,06,26,08,02,19.30
2015,06,26,08,03,19.20
2015,06,26,08,04,19.20
2015,06,26,08,05,19.10
2015,06,26,08,06,19.10
2015,06,26,08,07,19.00
2015,06,26,08,08,19.00
2015,06,26,08,09,18.90
2015,06,26,08,10,18.80
2015,06,26,08,11,18.70
2015,06,26,08,12,18.60
2015,06,26,08,13,18.60
2015,06,26,08,14,18.60
2015,06,26,08,15,18.50
2015,06,26,08,16,18.50
2015,06,26,08,17,18.50
2015,06,26,08,18,18.50
2015,06,26,08,19,18.60
2015,06,26,08,20,18.60
2015,06,26,08,21,18.70
2015,06,26,08,22,18.70
2015,06,26,08,23,18.80
2015,06,26,08,24,18.90
2015,06,26,08,25,19.00
2015,06,26,08,26,19.10
2015,06,26,08,27,19.20
2015,06,26,08,28,19.20
2015,06,26,08,29,19.30
2015,06,26,08,30,19.40
2015,06,26,08,31,19.50
2015,06,26,08,32,19.60
2015,06,26,08,33,19.70
2015,06,26,08,34,19.80
2015,06,26,08,35,19.90
2015,06,26,08,36,19.90
2015,06,26,08,37,20.00
2015,06,26,08,38,20.00
2015,06,26,08,39,20.10
2015,06,26,08,40,20.10
2015,06,26,08,41,20.10
2015,06,26,08,42,20.20
2015,06,26,08,43,20.20
2015,06,26,08,44,20.20
2015,06,26,08,45,20.20
2015,06,26,08,46,20.20
2015,06,26,08,47,20.20
2015,06,26,08,48,20.20
2015,06,26,08,49,20.30
2015,06,26,08,50,20.30
2015,06,26,08,51,20.30
2015,06,26,08,52,20.30
2015,06,26,08,53,20.30
2015,06,26,08,54,20.30
2015,06,26,08,55,20.30
2015,06,26,08,56,20.40
2015,06,26,08,57,20.40
2015,06,26,08,58,20.40
2015,06,26,08,59,20.40
2015,06,26,09,00,20.40
2015,06,26,09,01,20.50
2015,06,26,09,02,20.50
2015,06,26,09,03,20.50
2015,06,26,09,04,20.60
2015,06,26,09,05,20.60
2015,06,26,09,06,20.60
2015,06,26,09,07,20.60
2015,06,26,09,08,20.70
2015,06,26,09,09,20.70
2015,06,26,09,10,20.70
2015,06,26,09,11,20.80
2015,06,26,09,12,20.80
2015,06,26,09,13,20.80
2015,06,26,09,14,20.90
2015,06,26,09,15,21.00
2015,06,26,09,16,21.00
2015,06,26,09,17,21.10
2015,06,26,09,18,21.10
2015,06,26,09,19,21.20
2015,06,26,09,20,21.30
2015,06,26,09,21,21.40
2015,06,26,09,22,21.40
2015,06,26,09,23,21.50
2015,06,26,09,24,21.60
2015,06,26,09,25,21.60
2015,06,26,09,26,21.60
2015,06,26,09,27,21.60
2015,06,26,09,28,21.70
2015,06,26,09,29,21.80
2015,06,26,09,30,21.80
2015,06,26,09,31,21.90
2015,06,26,09,32,22.00
2015,06,26,09,33,22.10
2015,06,26,09,34,22.10
2015,06,26,09,35,22.20
2015,06,26,09,36,22.20
2015,06,26,09,37,22.20
2015,06,26,09,38,22.30
2015,06,26,09,39,22.30
2015,06,26,09,40,22.40
2015,06,26,09,41,22.40
2015,06,26,09,42,22.50
2015,06,26,09,43,22.50
2015,06,26,09,44,22.60
2015,06,26,09,45,22.70
2015,06,26,09,46,22.70
2015,06,26,09,47,22.80
2015,06,26,09,48,22.80
2015,06,26,09,49,22.90
2015,06,26,09,50,23.00
2015,06,26,09,51,23.00
2015,06,26,09,52,23.10
2015,06,26,09,53,23.20
2015,06,26,09,54,23.20
2015,06,26,09,55,23.30
2015,06,26,09,56,23.40
2015,06,26,09,57,23.40
2015,06,26,09,58,23.50
2015,06,26,09,59,23.60
2015,06,26,10,00,23.60
2015,06,26,10,01,23.70
2015,06,26,10,02,23.70
2015,06,26,10,03,23.70
2015,06,26,10,04,23.80
2015,06,26,10,05,23.80
2015,06,26,10,06,23.80
2015,06,26,10,07,23.90
2015,06,26,10,08,23.90
2015,06,26,10,09,24.00
2015,06,26,10,10,24.10
2015,06,26,10,11,24.10
2015,06,26,10,12,24.20
2015,06,26,10,13,24.20
2015,06,26,10,14,24.20
2015,06,26,10,15,24.10
2015,06,26,10,16,24.00
2015,06,26,10,17,23.90
2015,06,26,10,18,23.90
2015,06,26,10,19,23.80
2015,06,26,10,20,23.70
2015,06,26,10,21,23.60
2015,06,26,10,22,23.60
2015,06,26,10,23,23.60
2015,06,26,10,24,23.60
2015,06,26,10,25,23.60
2015,06,26,10,26,23.60
2015,06,26,10,27,23.60
2015,06,26,10,28,23.50
2015,06,26,10,29,23.50
2015,06,26,10,30,23.50
2015,06,26,10,31,23.50
2015,06,26,10,32,23.60
2015,06,26,10,33,23.60
2015,06,26,10,34,23.60
2015,06,26,10,35,23.70
2015,06,26,10,36,23.80
2015,06,26,10,37,23.80
2015,06,26,10,38,23.90
2015,06,26,10,39,23.90
2015,06,26,10,40,23.90
2015,06,26,10,41,23.90
2015,06,26,10,42,23.90
2015,06,26,10,43,23.90
2015,06,26,10,44,23.90
2015,06,26,10,45,23.90
2015,06,26,10,46,23.90
2015,06,26,10,47,23.80
2015,06,26,10,48,23.80
2015,06,26,10,49,23.70
2015,06,26,10,50,23.50
2015,06,26,10,51,23.40
2015,06,26,10,52,23.40
2015,06,26,10,53,23.30
2015,06,26,10,54,23.30
2015,06,26,10,55,23.30
2015,06,26,10,56,23.20
2015,06,26,10,57,23.20
2015,06,26,10,58,23.20
2015,06,26,10,59,23.20
2015,06,26,11,00,23.20
2015,06,26,11,01,23.20
2015,06,26,11,02,23.20
2015,06,26,11,03,23.20
2015,06,26,11,04,23.30
2015,06,26,11,05,23.40
2015,06,26,11,06,23.50
2015,06,26,11,07,23.50
2015,06,26,11,08,23.60
2015,06,26,11,09,23.70
2015,06,26,11,10,23.70
2015,06,26,11,11,23.80
2015,06,26,11,12,23.80
2015,06,26,11,13,23.80
2015,06,26,11,14,23.80
2015,06,26,11,15,23.80
2015,06,26,11,16,23.80
2015,06,26,11,17,23.90
2015,06,26,11,18,23.90
2015,06,26,11,19,24.00
2015,06,26,11,20,24.10
2015,06,26,11,21,24.20
2015,06,26,11,22,24.30
2015,06,26,11,23,24.40
2015,06,26,11,24,24.50
2015,06,26,11,25,24.60
2015,06,26,11,26,24.60
2015,06,26,11,27,24.70
2015,06,26,11,28,24.70
2015,06,26,11,29,24.80
2015,06,26,11,30,24.80
2015,06,26,11,31,24.90
2015,06,26,11,32,24.90
2015,06,26,11,33,24.90
2015,06,26,11,34,24.90
2015,06,26,11,35,24.80
2015,06,26,11,36,24.70
2015,06,26,11,37,24.60
2015,06,26,11,38,24.40
2015,06,26,11,39,24.20
2015,06,26,11,40,24.10
2015,06,26,11,41,23.90
2015,06,26,11,42,23.80
2015,06,26,11,43,23.80
2015,06,26,11,44,23.80
2015,06,26,11,45,23.70
2015,06,26,11,46,23.70
2015,06,26,11,47,23.80
2015,06,26,11,48,23.80
2015,06,26,11,49,23.80
2015,06,26,11,50,23.90
2015,06,26,11,51,24.00
2015,06,26,11,52,24.10
2015,06,26,11,53,24.10
2015,06,26,11,54,24.10
2015,06,26,11,55,24.00
2015,06,26,11,56,24.00
2015,06,26,11,57,24.10
2015,06,26,11,58,24.10
2015,06,26,11,59,24.20
2015,06,26,12,00,24.30
2015,06,26,12,01,24.40
2015,06,26,12,02,24.50
2015,06,26,12,03,24.60
2015,06,26,12,04,24.70
2015,06,26,12,05,24.80
2015,06,26,12,06,24.90
2015,06,26,12,07,25.00
2015,06,26,12,08,25.10
2015,06,26,12,09,25.20
2015,06,26,12,10,25.20
2015,06,26,12,11,25.30
2015,06,26,12,12,25.30
2015,06,26,12,13,25.30
2015,06,26,12,14,25.30
2015,06,26,12,15,25.30
2015,06,26,12,16,25.30
2015,06,26,12,17,25.30
2015,06,26,12,18,25.30
2015,06,26,12,19,25.30
2015,06,26,12,20,25.20
2015,06,26,12,21,25.10
2015,06,26,12,22,24.90
2015,06,26,12,23,24.80
2015,06,26,12,24,24.70
2015,06,26,12,25,24.50
2015,06,26,12,26,24.40
2015,06,26,12,27,24.30
2015,06,26,12,28,24.20
2015,06,26,12,29,24.10
2015,06,26,12,30,24.00
2015,06,26,12,31,24.00
2015,06,26,12,32,24.00
2015,06,26,12,33,24.00
2015,06,26,12,34,24.00
2015,06,26,12,35,24.10
2015,06,26,12,36,24.10
2015,06,26,12,37,24.20
2015,06,26,12,38,24.20
2015,06,26,12,39,24.30
2015,06,26,12,40,24.40
2015,06,26,12,41,24.40
2015,06,26,12,42,24.50
2015,06,26,12,43,24.50
2015,06,26,12,44,24.60
2015,06,26,12,45,24.60
2015,06,26,12,46,24.60
2015,06,26,12,47,24.60
2015,06,26,12,48,24.60
2015,06,26,12,49,24.60
2015,06,26,12,50,24.70
2015,06,26,12,51,24.70
2015,06,26,12,52,24.70
2015,06,26,12,53,24.70
2015,06,26,12,54,24.70
2015,06,26,12,55,24.80
2015,06,26,12,56,24.90
2015,06,26,12,57,25.00
2015,06,26,12,58,25.10
2015,06,26,12,59,25.20
2015,06,26,13,00,25.20
2015,06,26,13,01,25.30
2015,06,26,13,02,25.30
2015,06,26,13,03,25.40
2015,06,26,13,04,25.40
2015,06,26,13,05,25.40
2015,06,26,13,06,25.40
2015,06,26,13,07,25.40
2015,06,26,13,08,25.50
2015,06,26,13,09,25.40
2015,06,26,13,10,25.50
2015,06,26,13,11,25.50
2015,06,26,13,12,25.60
2015,06,26,13,13,25.70
2015,06,26,13,14,25.70
2015,06,26,13,15,25.80
2015,06,26,13,16,25.80
2015,06,26,13,17,25.90
2015,06,26,13,18,26.00
2015,06,26,13,19,26.10
2015,06,26,13,20,26.10
2015,06,26,13,21,26.10
2015,06,26,13,22,26.10
2015,06,26,13,23,26.20
2015,06,26,13,24,26.20
2015,06,26,13,25,26.20
2015,06,26,13,26,26.20
2015,06,26,13,27,26.20
2015,06,26,13,28,26.10
2015,06,26,13,29,26.00
2015,06,26,13,30,25.90
2015,06,26,13,31,25.80
2015,06,26,13,32,25.80
2015,06,26,13,33,25.70
2015,06,26,13,34,25.70
2015,06,26,13,35,25.70
2015,06,26,13,36,25.70
2015,06,26,13,37,25.70
2015,06,26,13,38,25.70
2015,06,26,13,39,25.70
2015,06,26,13,40,25.80
2015,06,26,13,41,25.90
2015,06,26,13,42,26.00
2015,06,26,13,43,26.10
2015,06,26,13,44,26.10
2015,06,26,13,45,26.20
2015,06,26,13,46,26.20
2015,06,26,13,47,26.30
2015,06,26,13,48,26.20
2015,06,26,13,49,26.20
2015,06,26,13,50,26.10
2015,06,26,13,51,26.10
2015,06,26,13,52,26.10
2015,06,26,13,53,26.10
2015,06,26,13,54,26.00
2015,06,26,13,55,25.80
2015,06,26,13,56,25.70
2015,06,26,13,57,25.60
2015,06,26,13,58,25.40
2015,06,26,13,59,25.30
2015,06,26,14,00,25.20
2015,06,26,14,01,25.20
2015,06,26,14,02,25.20
2015,06,26,14,03,25.20
2015,06,26,14,04,25.30
2015,06,26,14,05,25.40
2015,06,26,14,06,25.40
2015,06,26,14,07,25.50
2015,06,26,14,08,25.50
2015,06,26,14,09,25.60
2015,06,26,14,10,25.70
2015,06,26,14,11,25.70
2015,06,26,14,12,25.80
2015,06,26,14,13,25.80
2015,06,26,14,14,25.80
2015,06,26,14,15,25.90
2015,06,26,14,16,25.90
2015,06,26,14,17,26.00
2015,06,26,14,18,26.10
2015,06,26,14,19,26.20
2015,06,26,14,20,26.30
2015,06,26,14,21,26.40
2015,06,26,14,22,26.40
2015,06,26,14,23,26.40
2015,06,26,14,24,26.50
2015,06,26,14,25,26.50
2015,06,26,14,26,26.60
2015,06,26,14,27,26.70
2015,06,26,14,28,26.70
2015,06,26,14,29,26.80
2015,06,26,14,30,26.90
2015,06,26,14,31,27.00
2015,06,26,14,32,27.10
2015,06,26,14,33,27.10
2015,06,26,14,34,27.20
2015,06,26,14,35,27.30
2015,06,26,14,36,27.30
2015,06,26,14,37,27.40
2015,06,26,14,38,27.50
2015,06,26,14,39,27.50
2015,06,26,14,40,27.50
2015,06,26,14,41,27.60
2015,06,26,14,42,27.60
2015,06,26,14,43,27.60
2015,06,26,14,44,27.60
2015,06,26,14,45,27.60
2015,06,26,14,46,27.60
2015,06,26,14,47,27.50
2015,06,26,14,48,27.50
2015,06,26,14,49,27.60
2015,06,26,14,50,27.60
2015,06,26,14,51,27.60
2015,06,26,14,52,27.60
2015,06,26,14,53,27.60
2015,06,26,14,54,27.60
2015,06,26,14,55,27.50
2015,06,26,14,56,27.40
2015,06,26,14,57,27.30
2015,06,26,14,58,27.20
2015,06,26,14,59,27.20
2015,06,26,15,00,27.20
2015,06,26,15,01,27.20
2015,06,26,15,02,27.30
2015,06,26,15,03,27.30
2015,06,26,15,04,27.40
2015,06,26,15,05,27.50
2015,06,26,15,06,27.50
2015,06,26,15,07,27.50
2015,06,26,15,08,27.60
2015,06,26,15,09,27.60
2015,06,26,15,10,27.60
2015,06,26,15,11,27.60
2015,06,26,15,12,27.60
2015,06,26,15,13,27.60
2015,06,26,15,14,27.70
2015,06,26,15,15,27.70
2015,06,26,15,16,27.80
2015,06,26,15,17,27.80
2015,06,26,15,18,27.80
2015,06,26,15,19,27.80
2015,06,26,15,20,27.90
2015,06,26,15,21,27.90
2015,06,26,15,22,27.90
2015,06,26,15,23,28.00
2015,06,26,15,24,28.00
2015,06,26,15,25,28.10
2015,06,26,15,26,28.20
2015,06,26,15,27,28.20
2015,06,26,15,28,28.20
2015,06,26,15,29,28.30
2015,06,26,15,30,28.30
2015,06,26,15,31,28.40
2015,06,26,15,32,28.40
2015,06,26,15,33,28.50
2015,06,26,15,34,28.50
2015,06,26,15,35,28.40
2015,06,26,15,36,28.20
2015,06,26,15,37,28.10
2015,06,26,15,38,27.90
2015,06,26,15,39,27.70
2015,06,26,15,40,27.50
2015,06,26,15,41,27.40
2015,06,26,15,42,27.30
2015,06,26,15,43,27.20
2015,06,26,15,44,27.10
2015,06,26,15,45,27.10
2015,06,26,15,46,27.00
2015,06,26,15,47,27.00
2015,06,26,15,48,27.00
2015,06,26,15,49,27.10
2015,06,26,15,50,27.20
2015,06,26,15,51,27.30
2015,06,26,15,52,27.40
2015,06,26,15,53,27.50
2015,06,26,15,54,27.60
2015,06,26,15,55,27.70
2015,06,26,15,56,27.90
2015,06,26,15,57,28.00
2015,06,26,15,58,28.00
2015,06,26,15,59,28.10
2015,06,26,16,00,28.10
2015,06,26,16,01,28.10
2015,06,26,16,02,28.10
2015,06,26,16,03,28.20
2015,06,26,16,04,28.20
2015,06,26,16,05,28.30
2015,06,26,16,06,28.30
2015,06,26,16,07,28.30
2015,06,26,16,08,28.40
2015,06,26,16,09,28.50
2015,06,26,16,10,28.60
2015,06,26,16,11,28.70
2015,06,26,16,12,28.80
2015,06,26,16,13,28.80
2015,06,26,16,14,28.80
2015,06,26,16,15,28.80
2015,06,26,16,16,28.90
2015,06,26,16,17,28.90
2015,06,26,16,18,29.00
2015,06,26,16,19,29.10
2015,06,26,16,20,29.10
2015,06,26,16,21,29.00
2015,06,26,16,22,29.00
2015,06,26,16,23,28.90
2015,06,26,16,24,28.90
2015,06,26,16,25,28.80
2015,06,26,16,26,28.80
2015,06,26,16,27,28.80
2015,06,26,16,28,28.80
2015,06,26,16,29,28.80
2015,06,26,16,30,28.80
2015,06,26,16,31,28.70
2015,06,26,16,32,28.60
2015,06,26,16,33,28.40
2015,06,26,16,34,28.30
2015,06,26,16,35,28.20
2015,06,26,16,36,28.20
2015,06,26,16,37,28.20
2015,06,26,16,38,28.20
2015,06,26,16,39,28.20
2015,06,26,16,40,28.20
2015,06,26,16,41,28.20
2015,06,26,16,42,28.20
2015,06,26,16,43,28.20
2015,06,26,16,44,28.20
2015,06,26,16,45,28.30
2015,06,26,16,46,28.40
2015,06,26,16,47,28.50
2015,06,26,16,48,28.50
2015,06,26,16,49,28.60
2015,06,26,16,50,28.60
2015,06,26,16,51,28.60
2015,06,26,16,52,28.70
2015,06,26,16,53,28.70
2015,06,26,16,54,28.70
2015,06,26,16,55,28.70
2015,06,26,16,56,28.70
2015,06,26,16,57,28.50
2015,06,26,16,58,28.40
2015,06,26,16,59,28.10
2015,06,26,17,00,27.90
2015,06,26,17,01,27.80
2015,06,26,17,02,27.70
2015,06,26,17,03,27.60
2015,06,26,17,04,27.50
2015,06,26,17,05,27.40
2015,06,26,17,06,27.40
2015,06,26,17,07,27.40
2015,06,26,17,08,27.40
2015,06,26,17,09,27.30
2015,06,26,17,10,27.30
2015,06,26,17,11,27.20
2015,06,26,17,12,27.10
2015,06,26,17,13,27.10
2015,06,26,17,14,27.10
2015,06,26,17,15,27.00
2015,06,26,17,16,27.00
2015,06,26,17,17,27.00
2015,06,26,17,18,26.90
2015,06,26,17,19,26.90